Fairfield, PA

3:03 AM EST on February 22, 2017 (GMT -0500)
Fountain Dale

Weather History for KRYT - November, 2011

Change the Weather History Date:

Tuesday, November 1, 2011

  Actual Average (KHGR) Record (KHGR)
Temperature  
Mean Temperature 48 °F -  
Max Temperature 63 °F 56 °F 73 °F (2003)
Min Temperature 34 °F 39 °F 33 °F (2002)
Degree Days  
Heating Degree Days 18    
Moisture  
Dew Point 34 °F    
Average Humidity 67    
Maximum Humidity 82    
Minimum Humidity 38    
Precipitation  
Precipitation 0.00 in - - ()
Sea Level Pressure  
Sea Level Pressure 30.32 in    
Wind  
Wind Speed 0 mph (West)    
Max Wind Speed 4 mph    
Max Gust Speed -    
Visibility 9 miles    
Events      
Averages and records for this station are not official NWS values.
T = Trace of Precipitation, MM = Missing Value Source: NWS Daily Summary

Daily Weather History Graph

Daily Weather History Graph

Search for Another Location

Airport or City:

Trip Planner

Search our weather history database for the weather conditions in past years. The results will help you decide how hot, cold, wet, or windy it might be!

Date:

Astronomy

Nov. 01, 2011 Rise Set
Actual Time 7:37 AM EDT 6:08 PM EDT
Civil Twilight 7:10 AM EDT 6:36 PM EDT
Nautical Twilight 6:38 AM EDT 7:07 PM EDT
Astronomical Twilight 6:06 AM EDT 7:39 PM EDT
Moon 1:23 PM EDT (11/1) 11:48 PM EDT (11/1)
Length of Visible Light 11h 26m
Length of Day
10h 30m
Waxing Crescent, 39% of the Moon is Illuminated
Nov 1
Waxing Crescent
Nov 2
First Quarter
Nov 10
Full
Nov 18
Last Quarter
Nov 25
New

Hourly Weather History & Observations

Time (EDT) Temp. Windchill Dew Point Humidity Pressure Visibility Wind Dir Wind Speed Gust Speed Precip Events Conditions
12:53 AM 39.0 °F - 30.9 °F 73% 30.27 in 10.0 mi Calm Calm - N/A   Partly Cloudy
1:53 AM 37.0 °F 34.5 °F 30.9 °F 79% 30.26 in 10.0 mi SW 3.5 mph - N/A   Clear
2:53 AM 36.0 °F - 30.9 °F 82% 30.27 in 10.0 mi Calm Calm - N/A   Clear
3:53 AM 36.0 °F - 30.0 °F 79% 30.27 in 10.0 mi Calm Calm - N/A   Clear
4:53 AM 34.0 °F - 28.9 °F 82% 30.28 in 8.0 mi Calm Calm - N/A   Clear
5:53 AM 36.0 °F - 30.0 °F 79% 30.29 in 7.0 mi Calm Calm - N/A   Clear
6:53 AM 36.0 °F - 30.0 °F 79% 30.30 in 8.0 mi Calm Calm - N/A   Clear
7:53 AM 34.0 °F - 28.9 °F 82% 30.32 in 3.0 mi Calm Calm - N/A   Haze
8:53 AM 37.0 °F - 32.0 °F 82% 30.33 in 3.0 mi Calm Calm - N/A   Haze
9:53 AM 44.1 °F - 37.0 °F 76% 30.34 in 9.0 mi Calm Calm - N/A   Clear
10:53 AM 54.0 °F - 37.0 °F 53% 30.33 in 10.0 mi Calm Calm - N/A   Clear
11:53 AM 60.1 °F - 37.0 °F 42% 30.33 in 10.0 mi Calm Calm - N/A   Clear
12:53 PM 61.0 °F - 35.1 °F 38% 30.31 in 10.0 mi Calm Calm - N/A   Clear
1:53 PM 61.0 °F - 36.0 °F 39% 30.30 in 10.0 mi NW 3.5 mph - N/A   Overcast
2:53 PM 57.0 °F - 37.0 °F 47% 30.30 in 10.0 mi Calm Calm - N/A   Mostly Cloudy
3:53 PM 60.1 °F - 37.0 °F 42% 30.30 in 10.0 mi Calm Calm - N/A   Overcast
4:53 PM 57.0 °F - 37.9 °F 49% 30.31 in 10.0 mi Calm Calm - N/A   Overcast
5:53 PM 53.1 °F - 37.0 °F 55% 30.32 in 10.0 mi Calm Calm - N/A   Mostly Cloudy
6:53 PM 48.0 °F - 37.0 °F 66% 30.34 in 10.0 mi Calm Calm - N/A   Clear
7:53 PM 46.0 °F - 36.0 °F 68% 30.36 in 10.0 mi Calm Calm - N/A   Clear
8:53 PM 43.0 °F - 35.1 °F 74% 30.37 in 10.0 mi Calm Calm - N/A   Clear
9:53 PM 41.0 °F - 34.0 °F 76% 30.37 in 9.0 mi Calm Calm - N/A   Clear
10:53 PM 39.9 °F - 34.0 °F 79% 30.36 in 7.0 mi Calm Calm - N/A   Clear
11:53 PM 39.0 °F - 33.1 °F 79% 30.35 in 6.0 mi Calm Calm - N/A   Haze